Aérodrome :
LOGIN :

S'inscrire | Disclaimer

   EN    FR    IT 

 










Légende :    VFR   VFR Marginal   IFR   IFR Intensif   IFR Très Intensif
Visi : 
Plafond : 
>= 8 km
>= 3000ft
5 à 8 km
1000 à 3000 ft
1500m à 5 km
500 à 1000 ft
800 à 1500m
200 à 500 ft
< 800m
< 200 ft
Symboles :   Orages  Brouillard  Fortes neiges  Fortes précipitations  Vent > 20 kt
SIGMETs :   Divers  Orages  Givrage  Turbulence  Onde Orograph.  Cendres Volcan.







- Altitude de l'aérodrome : 24 ft
- Code IATA : SGD


EKSB - Sonderborg

DERNIER METAR :
  • 201250Z 10011KT 8000 FEW020 04/M01 Q1023

METARs EXPIRÉS :
  • 201221Z 12010KT 8000 SCT020 04/00 Q1023
  • 201155Z 11012KT 8000 FEW010 SCT035 04/M00 Q1022
  • 201120Z 12011KT 7000 FEW010 BKN030 04/01 Q1022
  • 201050Z 11010KT 7000 SCT010 BKN025 03/01 Q1022
  • 201021Z 11010KT 7000 SCT008 BKN012 03/01 Q1022

TAF TAF EKSB
Valide du 20 à 12h jusqu'au 20 à 21h UTC


201156Z 2012/2021 11010KT 8000 BKN020
Pas de NOTAMs connus pour ce terrain.



MET'MAP, la Météo Aéronautique d'un coup d'oeil ! - Copyright ORBIFLY Décembre 2007 - Disclaimer

ORBIFLY MET'MAP TEAM :

Programmation & Développement : Alexandra Zaïnal
Conception & Développement : Baudouin d'Aumeries
Co-Programmation & Développement : Marc-Olivier Méhu
Soutien technique & logistique : Manuel Goepfert

Contact : metmap@orbifly.com




SOURCES & CREDITS :

   NOAA